Time[GMT],gps_lat[degrees_north](-3m),gps_lon[degrees_west](-3m),gps_2_lat[degrees_north](-3m),gps_2_lon[degrees_west](-3m)
2013-06-24 17:00,43.714466095,-69.355651855,43.72,-69.36
2013-06-24 18:00,43.714450836,-69.355667114,43.71,-69.36
2013-06-24 19:00,43.714485168,-69.355567932,43.71,-69.36
2013-06-24 20:00,43.714534760,-69.355552673,43.71,-69.36
2013-06-24 21:00,43.714515686,-69.355499268,43.71,-69.36
2013-06-24 22:00,43.714599609,-69.355453491,43.71,-69.36
2013-06-24 23:00,43.714584351,-69.355499268,43.71,-69.36
2013-06-25 00:00,43.714565277,-69.355499268,43.71,-69.36
2013-06-25 01:00,43.714565277,-69.355468750,43.71,-69.36
2013-06-25 02:00,43.714550018,-69.355468750,43.71,-69.36
2013-06-25 03:00,43.714466095,-69.355468750,43.71,-69.36
2013-06-25 04:00,43.714466095,-69.355400085,43.71,-69.36
2013-06-25 05:00,43.714366913,-69.355468750,43.71,-69.36
2013-06-25 06:00,43.714248657,-69.355484009,43.71,-69.36
2013-06-25 07:00,43.714233398,-69.355484009,43.71,-69.36
2013-06-25 08:00,43.714248657,-69.355453491,,
2013-06-25 09:00,43.714248657,-69.355400085,43.71,-69.36
2013-06-25 10:00,43.714332581,-69.355400085,43.71,-69.36
2013-06-25 11:00,43.714382172,-69.355415344,43.71,-69.36
2013-06-25 12:00,43.714431763,-69.355415344,43.71,-69.36
2013-06-25 13:00,43.714485168,-69.355484009,43.71,-69.36
2013-06-25 14:00,43.714515686,-69.355484009,,
2013-06-25 15:00,43.714565277,-69.355484009,43.71,-69.36
2013-06-25 16:00,43.714550018,-69.355499268,,
2013-06-25 17:00,43.714500427,-69.355514526,43.71,-69.36
2013-06-25 18:00,43.714466095,-69.355567932,43.71,-69.36
2013-06-25 19:00,43.714431763,-69.355484009,43.71,-69.36
2013-06-25 20:00,43.714416504,-69.355453491,43.71,-69.36
2013-06-25 21:00,43.714416504,-69.355400085,43.71,-69.36
2013-06-25 22:00,43.714550018,-69.355331421,43.71,-69.36
2013-06-25 23:00,43.714550018,-69.355300903,43.71,-69.36
2013-06-26 00:00,43.714466095,-69.355300903,43.71,-69.36
2013-06-26 01:00,43.714298248,-69.355316162,43.71,-69.36
2013-06-26 02:00,43.714351654,-69.355430603,43.71,-69.36
2013-06-26 03:00,43.714416504,-69.355552673,43.71,-69.36
2013-06-26 04:00,43.714401245,-69.355613708,43.71,-69.36
2013-06-26 05:00,43.714351654,-69.355651855,43.71,-69.36
2013-06-26 06:00,43.714317322,-69.355682373,43.71,-69.36
2013-06-26 07:00,43.714298248,-69.355712891,43.71,-69.36
2013-06-26 08:00,43.714282990,-69.355766296,43.71,-69.36
2013-06-26 09:00,43.714298248,-69.355712891,43.71,-69.36
2013-06-26 10:00,43.714317322,-69.355735779,,
2013-06-26 11:00,43.714351654,-69.355712891,43.71,-69.36
2013-06-26 12:00,43.714416504,-69.355735779,43.71,-69.36
2013-06-26 13:00,43.714534760,-69.355499268,43.71,-69.36
2013-06-26 14:00,43.714500427,-69.355499268,43.71,-69.36
2013-06-26 15:00,43.714466095,-69.355514526,43.71,-69.36
2013-06-26 16:00,43.714450836,-69.355567932,43.71,-69.36
2013-06-26 17:00,43.714366913,-69.355613708,43.71,-69.36
2013-06-26 18:00,43.714317322,-69.355781555,43.71,-69.36
2013-06-26 19:00,43.714183807,-69.355918884,43.71,-69.36
2013-06-26 20:00,43.714168549,-69.356002808,43.71,-69.36
2013-06-26 21:00,43.714168549,-69.355979919,43.71,-69.36
2013-06-26 22:00,43.714248657,-69.356033325,43.71,-69.36
2013-06-26 23:00,43.714332581,-69.356048584,43.71,-69.36
2013-06-27 00:00,43.714382172,-69.355979919,43.71,-69.36
2013-06-27 01:00,43.714431763,-69.355964661,43.71,-69.36
2013-06-27 02:00,43.714431763,-69.355865479,43.71,-69.36
2013-06-27 03:00,43.714485168,-69.355880737,43.71,-69.36
2013-06-27 04:00,43.714431763,-69.355834961,43.71,-69.36
2013-06-27 05:00,43.714332581,-69.355834961,43.71,-69.36
2013-06-27 06:00,43.714267731,-69.355865479,43.71,-69.36
2013-06-27 07:00,43.714248657,-69.355850220,43.71,-69.36
2013-06-27 08:00,43.714199066,-69.355918884,43.71,-69.36
2013-06-27 09:00,43.714149475,-69.355918884,43.71,-69.36
2013-06-27 10:00,43.714168549,-69.355918884,43.71,-69.36
2013-06-27 11:00,43.714183807,-69.355903625,43.71,-69.36
2013-06-27 12:00,43.714183807,-69.355880737,43.71,-69.36
2013-06-27 13:00,43.714233398,-69.355880737,43.71,-69.36
2013-06-27 14:00,43.714401245,-69.355697632,43.71,-69.36
2013-06-27 15:00,43.714351654,-69.355865479,43.71,-69.36
2013-06-27 16:00,43.714317322,-69.355903625,43.71,-69.36
2013-06-27 17:00,43.714351654,-69.355918884,43.71,-69.36
2013-06-27 18:00,43.714298248,-69.355934143,43.71,-69.36
2013-06-27 19:00,43.714298248,-69.355949402,43.71,-69.36
2013-06-27 20:00,43.714233398,-69.355934143,43.71,-69.36
2013-06-27 21:00,43.714267731,-69.355964661,43.71,-69.36
2013-06-27 22:00,43.714267731,-69.355865479,43.71,-69.36
2013-06-27 23:00,43.714267731,-69.355903625,43.71,-69.36
2013-06-28 00:00,43.714267731,-69.355903625,43.71,-69.36
2013-06-28 01:00,43.714267731,-69.355918884,43.71,-69.36
2013-06-28 02:00,43.714267731,-69.355949402,43.71,-69.36
2013-06-28 03:00,43.714267731,-69.356002808,43.71,-69.36
2013-06-28 04:00,43.714218140,-69.356063843,43.71,-69.36
2013-06-28 05:00,43.714267731,-69.356246948,43.71,-69.36
2013-06-28 06:00,43.714233398,-69.356246948,43.71,-69.36
2013-06-28 07:00,43.714248657,-69.356285095,43.71,-69.36
2013-06-28 08:00,43.714233398,-69.356231689,43.71,-69.36
2013-06-28 09:00,43.714183807,-69.356231689,43.71,-69.36
2013-06-28 10:00,43.714199066,-69.356185913,43.71,-69.36
2013-06-28 11:00,43.714282990,-69.356216431,43.71,-69.36
2013-06-28 12:00,43.714298248,-69.356201172,43.71,-69.36
2013-06-28 13:00,43.714466095,-69.356468201,43.71,-69.36
2013-06-28 14:00,43.714366913,-69.356033325,43.71,-69.36
2013-06-28 15:00,43.714431763,-69.356048584,43.71,-69.36
2013-06-28 16:00,43.714599609,-69.355934143,43.71,-69.36
2013-06-28 17:00,43.714515686,-69.355934143,43.71,-69.36
2013-06-28 18:00,43.714485168,-69.355880737,43.71,-69.36
2013-06-28 19:00,43.714401245,-69.355880737,43.71,-69.36
2013-06-28 20:00,43.714282990,-69.355949402,43.71,-69.36
2013-06-28 21:00,43.714115143,-69.355880737,,
2013-06-28 22:00,43.714115143,-69.355880737,43.71,-69.36
2013-06-28 23:00,43.714233398,-69.356048584,43.71,-69.36
2013-06-29 00:00,43.714267731,-69.356086731,43.71,-69.36
2013-06-29 01:00,43.714317322,-69.356063843,43.71,-69.36
2013-06-29 02:00,43.714298248,-69.356048584,43.71,-69.36
2013-06-29 03:00,,,,
2013-06-29 04:00,43.714466095,-69.356018066,43.71,-69.36
2013-06-29 05:00,43.714550018,-69.355964661,43.71,-69.36
2013-06-29 06:00,43.714485168,-69.355964661,43.71,-69.36
2013-06-29 07:00,43.714416504,-69.355949402,43.71,-69.36
2013-06-29 08:00,43.714401245,-69.355964661,43.71,-69.36
2013-06-29 09:00,43.714366913,-69.355934143,43.71,-69.36
2013-06-29 10:00,43.714298248,-69.355934143,43.71,-69.36
2013-06-29 11:00,43.714267731,-69.355964661,43.71,-69.36
2013-06-29 12:00,43.714183807,-69.355918884,43.71,-69.36
2013-06-29 13:00,43.714267731,-69.355979919,43.71,-69.36
2013-06-29 14:00,43.714317322,-69.355834961,43.71,-69.36
2013-06-29 15:00,43.714366913,-69.356002808,43.71,-69.36
2013-06-29 16:00,43.714416504,-69.356033325,43.71,-69.36
2013-06-29 17:00,43.714416504,-69.356063843,43.71,-69.36
2013-06-29 18:00,43.714431763,-69.356063843,43.71,-69.36
2013-06-29 19:00,43.714416504,-69.356033325,43.71,-69.36
2013-06-29 20:00,43.714485168,-69.356018066,43.71,-69.36
2013-06-29 21:00,43.714485168,-69.356048584,43.71,-69.36
2013-06-29 22:00,43.714584351,-69.355949402,43.71,-69.36
2013-06-29 23:00,43.714599609,-69.355834961,43.71,-69.36
2013-06-30 00:00,43.714584351,-69.355781555,43.71,-69.36
2013-06-30 01:00,43.714584351,-69.355697632,43.71,-69.36
2013-06-30 02:00,43.714584351,-69.355613708,43.71,-69.36
2013-06-30 03:00,43.714584351,-69.355651855,43.71,-69.36
2013-06-30 04:00,43.714599609,-69.355613708,43.71,-69.36
2013-06-30 05:00,43.714599609,-69.355636597,43.71,-69.36
2013-06-30 06:00,43.714534760,-69.355667114,,
2013-06-30 07:00,43.714450836,-69.355903625,43.71,-69.36
2013-06-30 08:00,43.714382172,-69.355964661,43.71,-69.36
2013-06-30 09:00,43.714317322,-69.355918884,43.71,-69.36
2013-06-30 10:00,43.714267731,-69.355918884,43.71,-69.36
2013-06-30 11:00,43.714218140,-69.355918884,43.71,-69.36
2013-06-30 12:00,43.714199066,-69.355964661,43.71,-69.36
2013-06-30 13:00,43.714183807,-69.355964661,43.71,-69.36
2013-06-30 14:00,43.714233398,-69.355964661,43.71,-69.36
2013-06-30 15:00,43.714317322,-69.355979919,43.71,-69.36
2013-06-30 16:00,43.714416504,-69.355964661,43.71,-69.36
2013-06-30 17:00,43.714431763,-69.356048584,43.71,-69.36
2013-06-30 18:00,43.714431763,-69.356033325,43.71,-69.36
2013-06-30 19:00,43.714450836,-69.356002808,43.71,-69.36
2013-06-30 20:00,43.714431763,-69.356002808,43.71,-69.36
2013-06-30 21:00,43.714382172,-69.355979919,43.71,-69.36
2013-06-30 22:00,43.714332581,-69.355979919,43.71,-69.36
2013-06-30 23:00,43.714183807,-69.355880737,43.71,-69.36
2013-07-01 00:00,43.714218140,-69.355934143,43.71,-69.36
2013-07-01 01:00,43.714218140,-69.355880737,43.71,-69.36
2013-07-01 02:00,43.714248657,-69.355979919,43.71,-69.36
2013-07-01 03:00,43.714199066,-69.355865479,43.71,-69.36
2013-07-01 04:00,43.714218140,-69.355903625,43.71,-69.36
2013-07-01 05:00,43.714298248,-69.355903625,43.71,-69.36
2013-07-01 06:00,43.714298248,-69.355918884,,
2013-07-01 07:00,43.714282990,-69.355903625,,
2013-07-01 08:00,43.714267731,-69.355903625,43.71,-69.36
2013-07-01 09:00,43.714282990,-69.355918884,43.71,-69.36
2013-07-01 10:00,43.714248657,-69.355865479,43.71,-69.36
2013-07-01 11:00,43.714183807,-69.355903625,43.71,-69.36
2013-07-01 12:00,43.714149475,-69.355903625,43.71,-69.36
2013-07-01 13:00,43.714218140,-69.355949402,,
2013-07-01 14:00,43.714233398,-69.356002808,43.71,-69.36
2013-07-01 15:00,43.714332581,-69.355979919,43.71,-69.36
2013-07-01 16:00,43.714351654,-69.355964661,43.71,-69.36
2013-07-01 17:00,43.714366913,-69.355949402,43.71,-69.36
2013-07-01 18:00,43.714416504,-69.355918884,43.71,-69.36
2013-07-01 19:00,43.714401245,-69.355903625,43.71,-69.36
2013-07-01 20:00,43.714401245,-69.355934143,43.71,-69.36
2013-07-01 21:00,43.714431763,-69.355964661,43.71,-69.36
2013-07-01 22:00,43.714382172,-69.355964661,43.71,-69.36
2013-07-01 23:00,43.714382172,-69.355964661,43.71,-69.36
2013-07-02 00:00,43.714332581,-69.355964661,43.71,-69.36
2013-07-02 01:00,43.714298248,-69.355918884,43.70,-69.35
2013-07-02 02:00,43.714282990,-69.355934143,43.71,-69.36
2013-07-02 03:00,43.714298248,-69.355918884,43.71,-69.36
2013-07-02 04:00,43.714282990,-69.355903625,43.71,-69.36
2013-07-02 05:00,43.714351654,-69.355918884,43.71,-69.36
2013-07-02 06:00,43.714366913,-69.355918884,43.71,-69.36
2013-07-02 07:00,43.714416504,-69.355918884,43.71,-69.36
2013-07-02 08:00,43.714351654,-69.355934143,,
2013-07-02 09:00,43.714382172,-69.355949402,43.71,-69.36
2013-07-02 10:00,43.714351654,-69.356002808,43.71,-69.36
2013-07-02 11:00,43.714298248,-69.355964661,43.71,-69.36
2013-07-02 12:00,43.714218140,-69.355979919,43.71,-69.36
2013-07-02 13:00,43.714248657,-69.356048584,43.71,-69.36
2013-07-02 14:00,43.714168549,-69.356117249,43.71,-69.36
2013-07-02 15:00,43.714183807,-69.356086731,43.71,-69.36
2013-07-02 16:00,43.714218140,-69.356101990,43.71,-69.36
2013-07-02 17:00,43.714248657,-69.356163025,43.71,-69.36
2013-07-02 18:00,43.714317322,-69.356185913,43.71,-69.36
2013-07-02 19:00,43.714416504,-69.356132507,43.71,-69.36
2013-07-02 20:00,43.714401245,-69.356147766,43.71,-69.36
2013-07-02 21:00,43.714401245,-69.356201172,43.71,-69.36
2013-07-02 22:00,43.714382172,-69.356163025,43.71,-69.36
2013-07-02 23:00,43.714382172,-69.356086731,43.71,-69.36
2013-07-03 00:00,43.714382172,-69.356002808,43.71,-69.36
2013-07-03 01:00,43.714317322,-69.355949402,43.71,-69.36
2013-07-03 02:00,43.714282990,-69.355880737,43.71,-69.36
2013-07-03 03:00,43.714267731,-69.355903625,43.71,-69.36
2013-07-03 04:00,43.714282990,-69.355903625,43.71,-69.36
2013-07-03 05:00,43.714282990,-69.355903625,43.71,-69.36
2013-07-03 06:00,43.714317322,-69.355934143,43.71,-69.36
2013-07-03 07:00,43.714317322,-69.355949402,43.71,-69.36
2013-07-03 08:00,43.714317322,-69.355964661,43.71,-69.36
2013-07-03 09:00,43.714317322,-69.355964661,43.71,-69.36
2013-07-03 10:00,43.714298248,-69.355979919,43.71,-69.36
2013-07-03 11:00,43.714282990,-69.356018066,43.71,-69.36
2013-07-03 12:00,43.714282990,-69.356033325,,
2013-07-03 13:00,43.714183807,-69.356330872,43.71,-69.36
2013-07-03 14:00,43.714233398,-69.356018066,43.71,-69.36
2013-07-03 15:00,43.714267731,-69.356033325,43.71,-69.36
2013-07-03 16:00,43.714267731,-69.355979919,43.71,-69.36
2013-07-03 17:00,43.714267731,-69.356002808,43.71,-69.36
2013-07-03 18:00,43.714317322,-69.356018066,43.71,-69.36
2013-07-03 19:00,43.714366913,-69.355964661,43.71,-69.36
2013-07-03 20:00,43.714401245,-69.355934143,43.71,-69.36
2013-07-03 21:00,43.714416504,-69.355918884,43.71,-69.36
2013-07-03 22:00,43.714401245,-69.355880737,,
2013-07-03 23:00,43.714382172,-69.355903625,43.71,-69.36
2013-07-04 00:00,43.714298248,-69.355880737,43.71,-69.36
2013-07-04 01:00,43.714183807,-69.355850220,43.71,-69.36
2013-07-04 02:00,43.714183807,-69.355903625,43.71,-69.36
2013-07-04 03:00,43.714183807,-69.355918884,,
2013-07-04 04:00,43.714199066,-69.355934143,43.71,-69.36
2013-07-04 05:00,43.714248657,-69.355934143,43.71,-69.36
2013-07-04 06:00,43.714317322,-69.355934143,43.71,-69.36
2013-07-04 07:00,43.714317322,-69.355918884,43.71,-69.36
2013-07-04 08:00,43.714351654,-69.355918884,43.71,-69.36
2013-07-04 09:00,43.714382172,-69.355949402,43.71,-69.36
2013-07-04 10:00,43.714401245,-69.355949402,43.71,-69.36
2013-07-04 11:00,43.714450836,-69.355865479,43.71,-69.36
2013-07-04 12:00,43.714450836,-69.355880737,43.71,-69.36
2013-07-04 13:00,43.714431763,-69.355850220,,
2013-07-04 14:00,43.714382172,-69.355766296,43.71,-69.36
2013-07-04 15:00,43.714916229,-69.354797363,43.71,-69.36
2013-07-04 16:00,43.714332581,-69.355865479,43.71,-69.36
2013-07-04 17:00,43.714351654,-69.355934143,43.71,-69.36
2013-07-04 18:00,43.714366913,-69.355880737,,
2013-07-04 19:00,43.714382172,-69.355834961,43.71,-69.36
2013-07-04 20:00,43.714382172,-69.355834961,43.71,-69.36
2013-07-04 21:00,43.714401245,-69.355850220,43.71,-69.36
2013-07-04 22:00,43.714401245,-69.355903625,,
2013-07-04 23:00,43.714401245,-69.355903625,43.71,-69.36
2013-07-05 00:00,43.714382172,-69.355880737,43.71,-69.36
2013-07-05 01:00,43.714317322,-69.355880737,43.71,-69.36
2013-07-05 02:00,43.714248657,-69.355880737,43.71,-69.36
2013-07-05 03:00,43.714248657,-69.355865479,43.71,-69.36
2013-07-05 04:00,43.714267731,-69.355834961,43.71,-69.36
2013-07-05 05:00,43.714267731,-69.355796814,43.71,-69.36
2013-07-05 06:00,43.714282990,-69.355682373,43.71,-69.36
2013-07-05 07:00,43.714282990,-69.355682373,43.71,-69.36
2013-07-05 08:00,43.714267731,-69.355712891,43.71,-69.36
2013-07-05 09:00,43.714282990,-69.355697632,43.71,-69.36
2013-07-05 10:00,43.714317322,-69.355682373,43.71,-69.36
2013-07-05 11:00,43.714332581,-69.355735779,43.71,-69.36
2013-07-05 12:00,43.714649200,-69.356147766,43.71,-69.36
2013-07-05 13:00,43.714267731,-69.355949402,43.71,-69.36
2013-07-05 14:00,43.714282990,-69.355781555,43.70,-69.35
2013-07-05 15:00,43.714233398,-69.355819702,43.71,-69.36
2013-07-05 16:00,43.714183807,-69.355865479,43.71,-69.36
2013-07-05 17:00,43.714149475,-69.355781555,43.71,-69.36
2013-07-05 18:00,43.714199066,-69.355796814,43.71,-69.36
2013-07-05 19:00,43.714298248,-69.355766296,43.71,-69.36
2013-07-05 20:00,43.714366913,-69.355697632,43.71,-69.36
2013-07-05 21:00,43.714431763,-69.355712891,43.71,-69.36
2013-07-05 22:00,43.714450836,-69.355697632,43.71,-69.36
2013-07-05 23:00,43.714450836,-69.355735779,43.71,-69.36
2013-07-06 00:00,43.714431763,-69.355712891,43.71,-69.36
2013-07-06 01:00,43.714298248,-69.355766296,,
2013-07-06 02:00,43.714248657,-69.355796814,43.71,-69.36
2013-07-06 03:00,43.714199066,-69.355834961,43.71,-69.36
2013-07-06 04:00,43.714183807,-69.355781555,43.71,-69.36
2013-07-06 05:00,43.714183807,-69.355751038,43.71,-69.36
2013-07-06 06:00,43.714218140,-69.355819702,,
2013-07-06 07:00,43.714199066,-69.355781555,43.71,-69.36
2013-07-06 08:00,43.714199066,-69.355796814,43.71,-69.36
2013-07-06 09:00,43.714248657,-69.355781555,43.71,-69.36
2013-07-06 10:00,43.714351654,-69.355819702,,
2013-07-06 11:00,43.714351654,-69.355819702,43.71,-69.36
2013-07-06 12:00,43.714382172,-69.355781555,43.71,-69.36
2013-07-06 13:00,43.714351654,-69.355819702,43.71,-69.36
2013-07-06 14:00,43.714332581,-69.355735779,43.71,-69.36
2013-07-06 15:00,43.714282990,-69.355850220,43.71,-69.36
2013-07-06 16:00,43.714218140,-69.355865479,43.71,-69.36
2013-07-06 17:00,43.714267731,-69.355865479,43.71,-69.36
2013-07-06 18:00,43.714282990,-69.355865479,43.71,-69.36
2013-07-06 19:00,43.714282990,-69.355850220,43.71,-69.36
2013-07-06 20:00,43.714332581,-69.355712891,43.71,-69.36
2013-07-06 21:00,43.714317322,-69.355712891,43.71,-69.36
2013-07-06 22:00,43.714332581,-69.355667114,43.71,-69.36
2013-07-06 23:00,43.714332581,-69.355682373,43.71,-69.36
2013-07-07 00:00,43.714282990,-69.355766296,43.71,-69.36
2013-07-07 01:00,43.714248657,-69.355819702,43.71,-69.36
2013-07-07 02:00,43.714183807,-69.355796814,43.71,-69.36
2013-07-07 03:00,43.714134216,-69.355781555,43.71,-69.36
2013-07-07 04:00,43.714168549,-69.355819702,43.71,-69.36
2013-07-07 05:00,43.714134216,-69.355850220,43.71,-69.36
2013-07-07 06:00,43.714149475,-69.355819702,43.71,-69.36
2013-07-07 07:00,43.714183807,-69.355834961,43.71,-69.36
2013-07-07 08:00,43.714183807,-69.355781555,43.71,-69.36
2013-07-07 09:00,43.714183807,-69.355834961,43.71,-69.36
2013-07-07 10:00,43.714248657,-69.355751038,43.71,-69.36
2013-07-07 11:00,43.714298248,-69.355751038,43.71,-69.36
2013-07-07 12:00,43.714317322,-69.355712891,43.71,-69.36
2013-07-07 13:00,43.714233398,-69.355865479,43.71,-69.36
2013-07-07 14:00,43.714233398,-69.355781555,43.71,-69.36
2013-07-07 15:00,43.714199066,-69.355781555,43.71,-69.36
2013-07-07 16:00,43.714183807,-69.355751038,43.71,-69.36
2013-07-07 17:00,43.714149475,-69.355766296,43.71,-69.36
2013-07-07 18:00,43.714168549,-69.355751038,43.71,-69.36
2013-07-07 19:00,43.714168549,-69.355766296,43.71,-69.36
2013-07-07 20:00,43.714149475,-69.355697632,43.71,-69.36
2013-07-07 21:00,43.714199066,-69.355712891,43.71,-69.36
2013-07-07 22:00,43.714218140,-69.355697632,43.71,-69.36
2013-07-07 23:00,43.714267731,-69.355636597,43.71,-69.36
2013-07-08 00:00,43.714050293,-69.356101990,43.71,-69.36
2013-07-08 01:00,43.714218140,-69.355766296,,
2013-07-08 02:00,43.714218140,-69.355819702,,
2013-07-08 03:00,43.714183807,-69.355865479,43.71,-69.36
2013-07-08 04:00,43.714168549,-69.355918884,43.71,-69.36
2013-07-08 05:00,43.714199066,-69.355934143,43.71,-69.36
2013-07-08 06:00,43.714183807,-69.355979919,,
2013-07-08 07:00,43.714218140,-69.355949402,43.71,-69.36
2013-07-08 08:00,43.714199066,-69.355918884,43.70,-69.35
2013-07-08 09:00,43.714233398,-69.355918884,43.71,-69.36
2013-07-08 10:00,43.714282990,-69.355903625,43.71,-69.36
2013-07-08 11:00,43.714282990,-69.355865479,43.71,-69.36
2013-07-08 12:00,43.714183807,-69.355850220,43.71,-69.36
2013-07-08 13:00,43.714099884,-69.355964661,43.71,-69.36
2013-07-08 14:00,43.714168549,-69.356048584,43.71,-69.36
2013-07-08 15:00,43.714168549,-69.356063843,43.71,-69.36
2013-07-08 16:00,43.714183807,-69.356018066,43.71,-69.36
2013-07-08 17:00,43.714168549,-69.356048584,43.71,-69.36
2013-07-08 18:00,43.714218140,-69.356002808,43.71,-69.36
2013-07-08 19:00,43.714248657,-69.355934143,43.71,-69.36
2013-07-08 20:00,43.714282990,-69.355918884,43.71,-69.36
2013-07-08 21:00,43.714317322,-69.355880737,43.71,-69.36
2013-07-08 22:00,43.714317322,-69.355819702,43.71,-69.36
2013-07-08 23:00,43.714199066,-69.356300354,43.71,-69.36
2013-07-09 00:00,43.714248657,-69.355865479,43.71,-69.36
2013-07-09 01:00,43.714233398,-69.355865479,43.71,-69.36
2013-07-09 02:00,43.714248657,-69.355934143,43.71,-69.36
2013-07-09 03:00,43.714233398,-69.355934143,43.71,-69.36
2013-07-09 04:00,43.714218140,-69.355918884,43.71,-69.36
2013-07-09 05:00,43.714183807,-69.355880737,43.71,-69.36
2013-07-09 06:00,43.714183807,-69.355903625,43.71,-69.36
2013-07-09 07:00,43.714233398,-69.355880737,43.71,-69.36
2013-07-09 08:00,43.714248657,-69.355903625,43.71,-69.36
2013-07-09 09:00,43.714218140,-69.355819702,43.71,-69.36
2013-07-09 10:00,43.714248657,-69.355834961,43.71,-69.36
2013-07-09 11:00,43.714267731,-69.355819702,43.71,-69.36
2013-07-09 12:00,43.714282990,-69.355819702,43.71,-69.36
2013-07-09 13:00,43.714317322,-69.355781555,43.71,-69.36
2013-07-09 14:00,43.714282990,-69.355880737,,
2013-07-09 15:00,43.714298248,-69.355934143,43.71,-69.36
2013-07-09 16:00,43.714282990,-69.355979919,,
2013-07-09 17:00,43.714248657,-69.356002808,43.71,-69.36
2013-07-09 18:00,43.714248657,-69.355964661,43.71,-69.36
2013-07-09 19:00,43.714218140,-69.355964661,43.71,-69.36
2013-07-09 20:00,43.714199066,-69.355979919,43.71,-69.36
2013-07-09 21:00,43.714218140,-69.355949402,43.71,-69.36
2013-07-09 22:00,43.714233398,-69.355949402,43.71,-69.36
2013-07-09 23:00,43.714233398,-69.355918884,43.71,-69.36
2013-07-10 00:00,43.714248657,-69.355949402,43.71,-69.36
2013-07-10 01:00,43.714298248,-69.355949402,,
2013-07-10 02:00,43.714317322,-69.355949402,43.71,-69.36
2013-07-10 03:00,43.714332581,-69.355949402,,
2013-07-10 04:00,43.714332581,-69.355903625,43.71,-69.36
2013-07-10 05:00,43.714298248,-69.355903625,43.71,-69.36
2013-07-10 06:00,43.714298248,-69.355865479,43.71,-69.36
2013-07-10 07:00,43.714267731,-69.355903625,43.71,-69.36
2013-07-10 08:00,43.714233398,-69.355903625,43.71,-69.36
2013-07-10 09:00,43.714282990,-69.355880737,43.71,-69.36
2013-07-10 10:00,43.714282990,-69.355918884,43.71,-69.36
2013-07-10 11:00,43.714332581,-69.355918884,43.71,-69.36
2013-07-10 12:00,43.714382172,-69.355880737,43.71,-69.36
2013-07-10 13:00,43.714401245,-69.355880737,43.71,-69.36
2013-07-10 14:00,43.714401245,-69.355865479,43.71,-69.36
2013-07-10 15:00,43.714366913,-69.355850220,43.71,-69.36
2013-07-10 16:00,43.714351654,-69.355918884,43.71,-69.36
2013-07-10 17:00,43.714366913,-69.355918884,,
2013-07-10 18:00,43.714332581,-69.355865479,43.71,-69.36
2013-07-10 19:00,43.714298248,-69.355918884,43.71,-69.36
2013-07-10 20:00,,,,
2013-07-10 21:00,43.714298248,-69.355918884,43.71,-69.36
2013-07-10 22:00,43.714298248,-69.355934143,43.71,-69.36
2013-07-10 23:00,43.714351654,-69.355880737,43.71,-69.36
2013-07-11 00:00,43.714366913,-69.355850220,43.71,-69.36
2013-07-11 01:00,43.714416504,-69.355834961,43.71,-69.36
2013-07-11 02:00,43.714450836,-69.355796814,,
2013-07-11 03:00,43.714500427,-69.355766296,43.71,-69.36
2013-07-11 04:00,43.714500427,-69.355712891,43.71,-69.36
2013-07-11 05:00,43.714450836,-69.355712891,43.71,-69.36
2013-07-11 06:00,43.714382172,-69.355735779,43.71,-69.36
2013-07-11 07:00,43.714317322,-69.355751038,43.71,-69.36
2013-07-11 08:00,43.714267731,-69.355712891,43.71,-69.36
2013-07-11 09:00,43.714282990,-69.355667114,43.71,-69.36
2013-07-11 10:00,43.714248657,-69.355712891,43.71,-69.36
2013-07-11 11:00,43.714248657,-69.355751038,43.71,-69.36
2013-07-11 12:00,43.714431763,-69.356246948,43.71,-69.36
2013-07-11 13:00,43.714317322,-69.355880737,43.71,-69.36
2013-07-11 14:00,43.714401245,-69.355903625,43.71,-69.36
2013-07-11 15:00,43.714431763,-69.355819702,43.71,-69.36
2013-07-11 16:00,43.714431763,-69.355766296,43.71,-69.36
2013-07-11 17:00,43.714416504,-69.355751038,43.71,-69.36
2013-07-11 18:00,43.714366913,-69.355796814,43.71,-69.36
2013-07-11 19:00,43.714351654,-69.355796814,43.71,-69.36
2013-07-11 20:00,43.714317322,-69.355796814,43.71,-69.36
2013-07-11 21:00,43.714366913,-69.355796814,,
2013-07-11 22:00,43.714366913,-69.355766296,43.71,-69.36
2013-07-11 23:00,43.714401245,-69.355751038,43.71,-69.36
2013-07-12 00:00,43.714401245,-69.355735779,43.71,-69.36
2013-07-12 01:00,43.714382172,-69.355751038,43.71,-69.36
2013-07-12 02:00,43.714416504,-69.355751038,,